When you browse on this site, cookies collect data to enhance your experience and personalize the content and advertising you see.
Visit our Privacy Policy to learn more. By continuing to use the site, you agree to this use of cookies and data.
  • In Spain
  • List of Countries
  • For 7 days
  • Water Temperature
  • Satellite Maps
  • Weather Map
  • Weather Widgets
  • user-avatar
    Login

    Hourly Weather Barra

    Today, 17 February, Sunday

    Time Temperature Precipitation Wind Pressure Humidity
    00:00 +26°C° 0 mm 7 mps 758 mmHg 43%
    01:00 +26°C° 0 mm 7 mps 758 mmHg 44%
    02:00 +24°C° 0 mm 6 mps 758 mmHg 45%
    03:00 +24°C° 0 mm 6 mps 758 mmHg 46%
    04:00 +23°C° 0 mm 5 mps 758 mmHg 47%
    05:00 +23°C° 0 mm 5 mps 758 mmHg 48%
    06:00 +23°C° 0 mm 5 mps 759 mmHg 47%
    07:00 +23°C° 0 mm 5 mps 759 mmHg 46%
    08:00 +25°C° 0 mm 5 mps 760 mmHg 45%
    09:00 +27°C° 0 mm 5 mps 760 mmHg 37%
    10:00 +30°C° 0 mm 5 mps 760 mmHg 29%
    11:00 +33°C° 0 mm 4 mps 760 mmHg 21%
    12:00 +35°C° 0 mm 4 mps 759 mmHg 19%
    13:00 +36°C° 0 mm 4 mps 758 mmHg 17%
    14:00 +38°C° 0 mm 3 mps 757 mmHg 14%
    15:00 +36°C° 0 mm 5 mps 757 mmHg 22%
    16:00 +34°C° 0 mm 6 mps 757 mmHg 29%
    17:00 +32°C° 0 mm 7 mps 757 mmHg 36%
    18:00 +30°C° 0 mm 6 mps 757 mmHg 39%
    19:00 +28°C° 0 mm 6 mps 758 mmHg 41%
    20:00 +27°C° 0 mm 5 mps 758 mmHg 44%
    21:00 +26°C° 0 mm 6 mps 758 mmHg 45%
    22:00 +26°C° 0 mm 6 mps 759 mmHg 46%
    23:00 +24°C° 0 mm 7 mps 759 mmHg 46%

    Tomorrow, 18 February, Monday

    Time Temperature Precipitation Wind Pressure Humidity
    00:00 +24°C° 0 mm 6 mps 759 mmHg 48%
    01:00 +23°C° 0 mm 6 mps 758 mmHg 49%
    02:00 +23°C° 0 mm 5 mps 758 mmHg 51%
    03:00 +22°C° 0 mm 5 mps 758 mmHg 53%
    04:00 +22°C° 0 mm 4 mps 758 mmHg 55%
    05:00 +21°C° 0 mm 4 mps 758 mmHg 57%
    06:00 +22°C° 0 mm 4 mps 758 mmHg 56%
    07:00 +22°C° 0 mm 4 mps 759 mmHg 55%
    08:00 +23°C° 0 mm 4 mps 759 mmHg 54%
    09:00 +26°C° 0 mm 4 mps 759 mmHg 45%
    10:00 +29°C° 0 mm 3 mps 759 mmHg 36%
    11:00 +31°C° 0 mm 3 mps 759 mmHg 27%
    12:00 +33°C° 0 mm 3 mps 758 mmHg 25%
    13:00 +34°C° 0 mm 4 mps 758 mmHg 24%
    14:00 +36°C° 0 mm 5 mps 757 mmHg 23%
    15:00 +33°C° 0 mm 5 mps 757 mmHg 32%
    16:00 +30°C° 0 mm 6 mps 756 mmHg 41%
    17:00 +28°C° 0 mm 7 mps 756 mmHg 50%
    18:00 +28°C° 0 mm 6 mps 757 mmHg 52%
    19:00 +27°C° 0 mm 6 mps 757 mmHg 54%
    20:00 +26°C° 0 mm 5 mps 758 mmHg 56%
    21:00 +25°C° 0 mm 5 mps 758 mmHg 53%
    22:00 +25°C° 0 mm 5 mps 758 mmHg 51%
    23:00 +25°C° 0 mm 4 mps 758 mmHg 49%

    Day after tomorrow, 19 February, Tuesday

    Time Temperature Precipitation Wind Pressure Humidity
    00:00 +23°C° 0 mm 4 mps 758 mmHg 48%
    01:00 +23°C° 0 mm 4 mps 758 mmHg 47%
    02:00 +23°C° 0 mm 4 mps 757 mmHg 46%
    03:00 +22°C° 0 mm 4 mps 757 mmHg 46%
    04:00 +22°C° 0 mm 4 mps 757 mmHg 46%
    05:00 +22°C° 0 mm 4 mps 757 mmHg 46%
    06:00 +22°C° 0 mm 4 mps 758 mmHg 46%
    07:00 +23°C° 0 mm 4 mps 758 mmHg 45%
    08:00 +23°C° 0 mm 4 mps 758 mmHg 45%
    09:00 +26°C° 0 mm 4 mps 758 mmHg 38%
    10:00 +29°C° 0 mm 3 mps 758 mmHg 32%
    11:00 +31°C° 0 mm 3 mps 758 mmHg 26%
    12:00 +33°C° 0 mm 4 mps 758 mmHg 24%
    13:00 +34°C° 0 mm 4 mps 757 mmHg 22%
    14:00 +35°C° 0 mm 4 mps 756 mmHg 20%
    15:00 +34°C° 0 mm 4 mps 756 mmHg 27%
    16:00 +32°C° 0 mm 5 mps 755 mmHg 33%
    17:00 +30°C° 0 mm 5 mps 755 mmHg 40%
    18:00 +29°C° 0 mm 5 mps 756 mmHg 44%
    19:00 +27°C° 0 mm 5 mps 756 mmHg 48%
    20:00 +26°C° 0 mm 5 mps 757 mmHg 53%
    21:00 +26°C° 0 mm 5 mps 757 mmHg 52%
    22:00 +26°C° 0 mm 4 mps 758 mmHg 51%
    23:00 +25°C° 0 mm 4 mps 758 mmHg 50%

    20 February, Wednesday

    Time Temperature Precipitation Wind Pressure Humidity
    00:00 +25°C° 0 mm 4 mps 757 mmHg 48%
    01:00 +23°C° 0 mm 4 mps 757 mmHg 46%
    02:00 +24°C° 0 mm 3 mps 756 mmHg 45%
    03:00 +24°C° 0 mm 3 mps 756 mmHg 44%
    04:00 +22°C° 0 mm 3 mps 756 mmHg 42%
    05:00 +22°C° 0 mm 3 mps 756 mmHg 41%
    06:00 +22°C° 0 mm 3 mps 757 mmHg 40%
    07:00 +24°C° 0 mm 3 mps 757 mmHg 39%
    08:00 +23°C° 0 mm 4 mps 758 mmHg 37%
    09:00 +27°C° 0 mm 3 mps 758 mmHg 32%
    10:00 +29°C° 0 mm 3 mps 758 mmHg 26%
    11:00 +31°C° 0 mm 2 mps 758 mmHg 21%
    12:00 +33°C° 0 mm 3 mps 758 mmHg 20%
    13:00 +34°C° 0 mm 4 mps 757 mmHg 20%
    14:00 +36°C° 0 mm 5 mps 756 mmHg 19%
    15:00 +34°C° 0 mm 5 mps 756 mmHg 26%
    16:00 +32°C° 0 mm 5 mps 756 mmHg 33%
    17:00 +29°C° 0 mm 5 mps 756 mmHg 40%
    18:00 +28°C° 0 mm 5 mps 757 mmHg 46%
    19:00 +26°C° 0 mm 5 mps 757 mmHg 52%
    20:00 +25°C° 0 mm 4 mps 758 mmHg 58%
    21:00 +25°C° 0 mm 4 mps 758 mmHg 57%
    22:00 +25°C° 0 mm 4 mps 758 mmHg 56%
    23:00 +23°C° 0 mm 4 mps 758 mmHg 56%

    21 February, Thursday

    Time Temperature Precipitation Wind Pressure Humidity
    00:00 +23°C° 0 mm 4 mps 758 mmHg 54%
    01:00 +23°C° 0 mm 4 mps 758 mmHg 52%
    02:00 +23°C° 0 mm 4 mps 757 mmHg 50%
    03:00 +22°C° 0 mm 4 mps 757 mmHg 47%
    04:00 +22°C° 0 mm 4 mps 757 mmHg 45%
    05:00 +22°C° 0 mm 4 mps 757 mmHg 42%
    06:00 +23°C° 0 mm 4 mps 758 mmHg 40%
    07:00 +25°C° 0 mm 4 mps 759 mmHg 37%
    08:00 +25°C° 0 mm 4 mps 759 mmHg 35%
    09:00 +28°C° 0 mm 4 mps 759 mmHg 29%
    10:00 +30°C° 0 mm 4 mps 759 mmHg 23%
    11:00 +34°C° 0 mm 3 mps 759 mmHg 18%
    12:00 +35°C° 0 mm 4 mps 759 mmHg 17%
    13:00 +36°C° 0 mm 4 mps 758 mmHg 17%
    14:00 +37°C° 0 mm 5 mps 757 mmHg 16%
    15:00 +35°C° 0 mm 5 mps 757 mmHg 22%
    16:00 +34°C° 0 mm 5 mps 757 mmHg 27%
    17:00 +32°C° 0 mm 6 mps 757 mmHg 32%
    18:00 +30°C° 0 mm 5 mps 758 mmHg 37%
    19:00 +28°C° 0 mm 5 mps 758 mmHg 41%
    20:00 +27°C° 0 mm 5 mps 759 mmHg 45%
    21:00 +27°C° 0 mm 5 mps 759 mmHg 44%
    22:00 +26°C° 0 mm 5 mps 759 mmHg 42%
    23:00 +26°C° 0 mm 5 mps 759 mmHg 41%

    22 February, Friday

    Time Temperature Precipitation Wind Pressure Humidity
    00:00 +26°C° 0 mm 5 mps 759 mmHg 40%
    01:00 +26°C° 0 mm 5 mps 758 mmHg 38%
    02:00 +25°C° 0 mm 4 mps 758 mmHg 37%
    03:00 +25°C° 0 mm 4 mps 758 mmHg 37%
    04:00 +23°C° 0 mm 4 mps 758 mmHg 37%
    05:00 +23°C° 0 mm 4 mps 758 mmHg 38%
    06:00 +25°C° 0 mm 4 mps 759 mmHg 35%
    07:00 +25°C° 0 mm 4 mps 759 mmHg 32%
    08:00 +26°C° 0 mm 4 mps 760 mmHg 29%
    09:00 +29°C° 0 mm 4 mps 760 mmHg 24%
    10:00 +33°C° 0 mm 4 mps 760 mmHg 19%
    11:00 +36°C° 0 mm 4 mps 760 mmHg 14%
    12:00 +37°C° 0 mm 4 mps 759 mmHg 14%
    13:00 +40°C° 0 mm 4 mps 758 mmHg 13%
    14:00 +41°C° 0 mm 4 mps 757 mmHg 12%
    15:00 +39°C° 0 mm 5 mps 757 mmHg 18%
    16:00 +36°C° 0 mm 6 mps 757 mmHg 23%
    17:00 +34°C° 0 mm 7 mps 757 mmHg 28%
    18:00 +33°C° 0 mm 7 mps 757 mmHg 32%
    19:00 +30°C° 0 mm 7 mps 757 mmHg 35%
    20:00 +29°C° 0 mm 7 mps 758 mmHg 39%
    21:00 +28°C° 0 mm 6 mps 758 mmHg 38%
    22:00 +28°C° 0 mm 6 mps 758 mmHg 37%
    23:00 +27°C° 0 mm 5 mps 758 mmHg 36%
    Show more